Location: Alston School (historical)
(35.5076°N, 89.8251°W)
Time: 13:35:47
(UTC+00:00)

Cosmos 1937 Rocket - Pass Details

Date: 09 December 2025
Orbit: 743 x 775 km, 74.0° (Epoch: 20 January)

Event Time Altitude Azimuth Distance (km) Brightness Sun altitude
Exits shadow 12:07:54 - 323° (NW) 2,412 5.6 -10.0°
Reaches altitude 10° 12:08:21 10° 320° (NW) 2,259 5.4 -9.9°
Maximum altitude 12:12:46 31° 260° (W) 1,301 4.3 -9.0°
Drops below altitude 10° 12:17:12 10° 200° (SSW) 2,256 6.0 -8.2°
Sets 12:19:47 0° 189° (S) 3,180 6.9 -7.7°
